When you browse on this site, cookies collect data to enhance your experience and personalize the content and advertising you see.
Visit our Privacy Policy to learn more. By continuing to use the site, you agree to this use of cookies and data.
  • In Hungary
  • List of Countries
  • For 7 days
  • Water Temperature
  • Satellite Maps
  • Weather Map
  • News
  • Weather Widgets
  • user-avatar
    Login

    Hourly Weather Burjassot

    Today, 10 December, Monday

    Time Temperature Precipitation Wind Pressure Humidity
    00:00 +16°C° 0 mm 3 mps 766 mmHg 48%
    01:00 +14°C° 0 mm 3 mps 766 mmHg 51%
    02:00 +14°C° 0 mm 3 mps 766 mmHg 54%
    03:00 +14°C° 0 mm 2 mps 766 mmHg 57%
    04:00 +14°C° 0 mm 2 mps 766 mmHg 57%
    05:00 +13°C° 0 mm 2 mps 766 mmHg 58%
    06:00 +13°C° 0 mm 2 mps 766 mmHg 59%
    07:00 +14°C° 0 mm 2 mps 767 mmHg 55%
    08:00 +15°C° 0 mm 2 mps 767 mmHg 50%
    09:00 +16°C° 0 mm 2 mps 767 mmHg 46%
    10:00 +17°C° 0 mm 2 mps 766 mmHg 42%
    11:00 +19°C° 0 mm 2 mps 766 mmHg 37%
    12:00 +20°C° 0 mm 3 mps 766 mmHg 32%
    13:00 +20°C° 0 mm 3 mps 765 mmHg 33%
    14:00 +20°C° 0 mm 3 mps 765 mmHg 35%
    15:00 +20°C° 0 mm 3 mps 765 mmHg 36%
    16:00 +18°C° 0 mm 3 mps 765 mmHg 45%
    17:00 +16°C° 0 mm 3 mps 764 mmHg 55%
    18:00 +13°C° 0 mm 3 mps 764 mmHg 65%
    19:00 +14°C° 0 mm 2 mps 764 mmHg 68%
    20:00 +14°C° 0 mm 2 mps 764 mmHg 70%
    21:00 +13°C° 0 mm 1 mps 764 mmHg 73%
    22:00 +13°C° 0 mm 1 mps 764 mmHg 72%
    23:00 +13°C° 0 mm 1 mps 764 mmHg 71%

    Tomorrow, 11 December, Tuesday

    Time Temperature Precipitation Wind Pressure Humidity
    00:00 +13°C° 0 mm 1 mps 764 mmHg 69%
    01:00 +13°C° 0 mm 1 mps 763 mmHg 68%
    02:00 +12°C° 0 mm 1 mps 763 mmHg 66%
    03:00 +12°C° 0 mm 1 mps 763 mmHg 64%
    04:00 +12°C° 0 mm 1 mps 762 mmHg 63%
    05:00 +12°C° 0 mm 1 mps 762 mmHg 62%
    06:00 +12°C° 0 mm 1 mps 762 mmHg 60%
    07:00 +13°C° 0 mm 1 mps 762 mmHg 57%
    08:00 +14°C° 0 mm 1 mps 762 mmHg 53%
    09:00 +16°C° 0 mm 1 mps 762 mmHg 50%
    10:00 +18°C° 0 mm 1 mps 762 mmHg 45%
    11:00 +19°C° 0 mm 2 mps 761 mmHg 40%
    12:00 +20°C° 0 mm 2 mps 761 mmHg 36%
    13:00 +20°C° 0 mm 2 mps 760 mmHg 36%
    14:00 +20°C° 0 mm 3 mps 760 mmHg 36%
    15:00 +20°C° 0 mm 3 mps 759 mmHg 37%
    16:00 +19°C° 0 mm 3 mps 759 mmHg 41%
    17:00 +17°C° 0 mm 3 mps 759 mmHg 45%
    18:00 +16°C° 0 mm 3 mps 760 mmHg 50%
    19:00 +16°C° 0 mm 3 mps 760 mmHg 49%
    20:00 +16°C° 0 mm 3 mps 760 mmHg 48%
    21:00 +14°C° 0 mm 3 mps 760 mmHg 48%
    22:00 +14°C° 0 mm 3 mps 760 mmHg 48%
    23:00 +14°C° 0 mm 3 mps 760 mmHg 47%

    Day after tomorrow, 12 December, Wednesday

    Time Temperature Precipitation Wind Pressure Humidity
    00:00 +14°C° 0 mm 3 mps 760 mmHg 47%
    01:00 +13°C° 0 mm 3 mps 760 mmHg 49%
    02:00 +13°C° 0 mm 3 mps 760 mmHg 50%
    03:00 +12°C° 0 mm 3 mps 760 mmHg 51%
    04:00 +12°C° 0 mm 3 mps 760 mmHg 53%
    05:00 +12°C° 0 mm 3 mps 760 mmHg 55%
    06:00 +12°C° 0 mm 2 mps 760 mmHg 57%
    07:00 +12°C° 0 mm 3 mps 760 mmHg 56%
    08:00 +13°C° 0 mm 3 mps 760 mmHg 54%
    09:00 +14°C° 0 mm 3 mps 760 mmHg 53%
    10:00 +16°C° 0 mm 3 mps 760 mmHg 48%
    11:00 +18°C° 0 mm 3 mps 760 mmHg 44%
    12:00 +20°C° 0 mm 3 mps 759 mmHg 40%
    13:00 +20°C° 0 mm 4 mps 759 mmHg 41%
    14:00 +20°C° 0 mm 4 mps 758 mmHg 43%
    15:00 +20°C° 0 mm 4 mps 757 mmHg 44%
    16:00 +18°C° 0 mm 4 mps 757 mmHg 51%
    17:00 +17°C° 0 mm 4 mps 757 mmHg 57%
    18:00 +14°C° 0 mm 4 mps 757 mmHg 64%
    19:00 +14°C° 0 mm 5 mps 757 mmHg 66%
    20:00 +14°C° 0 mm 5 mps 758 mmHg 68%
    21:00 +14°C° 0 mm 5 mps 758 mmHg 70%
    22:00 +14°C° 0 mm 6 mps 757 mmHg 70%
    23:00 +14°C° 0 mm 6 mps 757 mmHg 70%

    13 December, Thursday

    Time Temperature Precipitation Wind Pressure Humidity
    00:00 +14°C° 0 mm 7 mps 756 mmHg 70%
    01:00 +14°C° 0 mm 7 mps 756 mmHg 72%
    02:00 +14°C° 0 mm 7 mps 755 mmHg 74%
    03:00 +14°C° 0 mm 6 mps 755 mmHg 76%
    04:00 +14°C° 0.1 mm 7 mps 754 mmHg 76%
    05:00 +12°C° 0.1 mm 7 mps 754 mmHg 76%
    06:00 +12°C° 0.1 mm 7 mps 754 mmHg 76%
    07:00 +12°C° 0.5 mm 8 mps 753 mmHg 76%
    08:00 +12°C° 0.5 mm 8 mps 753 mmHg 77%
    09:00 +12°C° 0.5 mm 8 mps 753 mmHg 77%
    10:00 +13°C° 0.1 mm 8 mps 752 mmHg 75%
    11:00 +15°C° 0.1 mm 9 mps 751 mmHg 72%
    12:00 +16°C° 0.1 mm 9 mps 750 mmHg 69%
    13:00 +16°C° 0.1 mm 9 mps 750 mmHg 65%
    14:00 +16°C° 0.1 mm 9 mps 749 mmHg 61%
    15:00 +16°C° 0.1 mm 9 mps 748 mmHg 56%
    16:00 +14°C° 0.4 mm 11 mps 749 mmHg 57%
    17:00 +12°C° 0.4 mm 12 mps 750 mmHg 58%
    18:00 +9°C° 0.4 mm 14 mps 750 mmHg 58%
    19:00 +9°C° 0.1 mm 14 mps 751 mmHg 57%
    20:00 +9°C° 0.1 mm 14 mps 752 mmHg 55%
    21:00 +8°C° 0.1 mm 14 mps 752 mmHg 54%
    22:00 +8°C° 0.1 mm 13 mps 753 mmHg 54%
    23:00 +8°C° 0.1 mm 13 mps 754 mmHg 54%

    14 December, Friday

    Time Temperature Precipitation Wind Pressure Humidity
    00:00 +8°C° 0.1 mm 13 mps 754 mmHg 54%
    01:00 +8°C° 0 mm 12 mps 755 mmHg 55%
    02:00 +8°C° 0 mm 12 mps 755 mmHg 56%
    03:00 +8°C° 0 mm 11 mps 756 mmHg 57%
    04:00 +8°C° 0 mm 11 mps 757 mmHg 58%
    05:00 +8°C° 0 mm 11 mps 757 mmHg 59%
    06:00 +8°C° 0 mm 11 mps 758 mmHg 61%
    07:00 +8°C° 0 mm 11 mps 759 mmHg 59%
    08:00 +9°C° 0 mm 10 mps 760 mmHg 57%
    09:00 +9°C° 0 mm 10 mps 760 mmHg 55%
    10:00 +12°C° 0 mm 9 mps 761 mmHg 51%
    11:00 +14°C° 0 mm 7 mps 761 mmHg 47%
    12:00 +15°C° 0 mm 6 mps 761 mmHg 43%
    13:00 +15°C° 0 mm 6 mps 761 mmHg 43%
    14:00 +15°C° 0 mm 5 mps 761 mmHg 43%
    15:00 +16°C° 0 mm 5 mps 761 mmHg 42%
    16:00 +14°C° 0 mm 4 mps 762 mmHg 48%
    17:00 +13°C° 0 mm 4 mps 763 mmHg 54%
    18:00 +11°C° 0 mm 3 mps 764 mmHg 59%
    19:00 +11°C° 0 mm 3 mps 764 mmHg 61%
    20:00 +10°C° 0 mm 3 mps 765 mmHg 62%
    21:00 +10°C° 0 mm 3 mps 765 mmHg 63%
    22:00 +10°C° 0 mm 4 mps 765 mmHg 62%
    23:00 +10°C° 0 mm 4 mps 766 mmHg 62%

    15 December, Saturday

    Time Temperature Precipitation Wind Pressure Humidity
    00:00 +8°C° 0 mm 4 mps 766 mmHg 61%
    01:00 +8°C° 0 mm 4 mps 766 mmHg 61%
    02:00 +8°C° 0 mm 4 mps 766 mmHg 61%
    03:00 +8°C° 0 mm 4 mps 766 mmHg 61%
    04:00 +8°C° 0 mm 4 mps 766 mmHg 62%
    05:00 +9°C° 0 mm 3 mps 766 mmHg 63%
    06:00 +9°C° 0 mm 3 mps 766 mmHg 64%
    07:00 +10°C° 0 mm 3 mps 766 mmHg 62%
    08:00 +11°C° 0 mm 3 mps 766 mmHg 60%
    09:00 +12°C° 0 mm 3 mps 767 mmHg 58%
    10:00 +15°C° 0 mm 2 mps 766 mmHg 54%
    11:00 +17°C° 0 mm 2 mps 766 mmHg 50%
    12:00 +18°C° 0 mm 2 mps 766 mmHg 46%
    13:00 +19°C° 0 mm 2 mps 766 mmHg 46%
    14:00 +19°C° 0 mm 2 mps 766 mmHg 46%
    15:00 +20°C° 0 mm 2 mps 765 mmHg 46%
    16:00 +18°C° 0 mm 2 mps 766 mmHg 53%
    17:00 +16°C° 0 mm 2 mps 766 mmHg 60%
    18:00 +14°C° 0 mm 2 mps 766 mmHg 66%
    19:00 +14°C° 0 mm 2 mps 766 mmHg 67%
    20:00 +14°C° 0 mm 2 mps 766 mmHg 69%
    21:00 +14°C° 0 mm 1 mps 767 mmHg 70%
    22:00 +14°C° 0 mm 2 mps 767 mmHg 71%
    23:00 +14°C° 0 mm 2 mps 766 mmHg 71%
    Show more